Language: 


Des rapports , des résumés tant et plus, au choix de chacun....


Données statistiques de la station
Quotidien Rapport Aout 18, 2017 Unités:  Métrique    Anglais   les deux
« Précédent Jour
Suivant Jour »
Quotidien Hebdomadaire Mensuel Annuel Actuel
  Haut: Bas: Moyen:
Température: 21.8 °C 0.0 °C 17.5 °C
Pt de rosée: 17.0 °C 10.0 °C 14.9 °C
Humidité: 97 % 0 % 84 %
Vitesse du vent: 33.1 km/h 0.0 km/h 9.3 km/h
Rafales: 38.1 km/h - -
Vent:- - WSW
Pression: 1014.1 hPa 0.0 hPa -
Précipitation: 5.1 mm    
Historical Graphs
 
 
Données statistiques pour Aout 18, 2017
Heure Température Point de rosée Pression Vent Vitesse du vent Refales Humidité Pluie (taux horaire)
00:04 16.2 °C 15.0 °C 1014.1 hPa Calm     93 % 0.0 mm
00:09 16.4 °C 15.0 °C 1014.1 hPa SSW 4.7 km/h 9.0 km/h 94 % 0.0 mm
00:14 16.5 °C 16.0 °C 1014.1 hPa SSW 7.6 km/h 9.0 km/h 95 % 0.0 mm
00:19 16.6 °C 16.0 °C 1014.1 hPa SW 1.4 km/h 7.6 km/h 95 % 0.0 mm
00:24 16.7 °C 16.0 °C 1014.1 hPa SSW 5.0 km/h 10.8 km/h 95 % 0.0 mm
00:29 16.8 °C 16.0 °C 1014.1 hPa Calm   10.8 km/h 95 % 0.0 mm
00:34 16.9 °C 16.0 °C 1014.1 hPa SSW 5.0 km/h 8.7 km/h 95 % 0.0 mm
00:39 16.9 °C 16.0 °C 1014.1 hPa Calm   6.4 km/h 95 % 0.0 mm
00:44 17.0 °C 16.0 °C 1014.1 hPa Calm   6.4 km/h 95 % 0.0 mm
00:49 17.0 °C 16.0 °C 1014.1 hPa Calm   6.4 km/h 95 % 0.0 mm
00:55 17.0 °C 16.0 °C 1014.1 hPa Calm   6.1 km/h 94 % 0.0 mm
01:00 17.0 °C 16.0 °C 1014.1 hPa Calm   6.9 km/h 94 % 0.0 mm
01:05 17.0 °C 16.0 °C 1014.1 hPa Calm   6.9 km/h 94 % 0.0 mm
01:10 16.9 °C 16.0 °C 1014.1 hPa Calm   5.5 km/h 95 % 0.0 mm
01:15 16.9 °C 16.0 °C 1014.1 hPa Calm   5.5 km/h 95 % 0.0 mm
01:20 16.9 °C 16.0 °C 1014.1 hPa Calm   7.9 km/h 95 % 0.0 mm
01:25 16.9 °C 16.0 °C 1014.1 hPa Calm   7.9 km/h 95 % 0.0 mm
01:30 16.9 °C 16.0 °C 1014.1 hPa Calm     95 % 0.0 mm
01:35 16.9 °C 16.0 °C 1014.1 hPa Calm   6.9 km/h 94 % 0.0 mm
01:40 16.8 °C 16.0 °C 1014.1 hPa Calm   6.9 km/h 94 % 0.0 mm
01:45 16.8 °C 16.0 °C 1014.1 hPa WSW 1.4 km/h 1.4 km/h 94 % 0.0 mm
01:50 16.7 °C 16.0 °C 1014.1 hPa Calm   1.4 km/h 94 % 0.0 mm
01:55 16.6 °C 16.0 °C 1014.1 hPa Calm     94 % 0.0 mm
02:00 16.5 °C 16.0 °C 1013.1 hPa Calm     94 % 0.0 mm
02:05 16.4 °C 15.0 °C 1013.1 hPa Calm     94 % 0.0 mm
02:10 16.3 °C 15.0 °C 1013.1 hPa Calm     94 % 0.0 mm
02:15 16.4 °C 16.0 °C 1013.1 hPa Calm     95 % 0.0 mm
02:20 16.4 °C 16.0 °C 1013.1 hPa Calm     95 % 0.0 mm
02:25 16.4 °C 16.0 °C 1013.1 hPa Calm   1.4 km/h 95 % 0.0 mm
02:30 16.5 °C 16.0 °C 1013.1 hPa Calm   1.8 km/h 95 % 0.0 mm
02:35 16.5 °C 16.0 °C 1013.1 hPa Calm   1.8 km/h 95 % 0.0 mm
02:40 16.6 °C 16.0 °C 1013.1 hPa Calm   1.4 km/h 96 % 0.0 mm
02:45 16.6 °C 16.0 °C 1013.1 hPa Calm   3.2 km/h 96 % 0.0 mm
02:47 16.6 °C 16.0 °C 1013.1 hPa SSW 2.1 km/h 4.0 km/h 96 % 0.0 mm
02:52 16.6 °C 16.0 °C 1013.1 hPa Calm   4.0 km/h 96 % 0.0 mm
02:57 16.6 °C 16.0 °C 1013.1 hPa South 3.5 km/h 4.0 km/h 96 % 0.0 mm
03:02 0.0 °C 16.0 °C 0.0 hPa South 1.4 km/h 2.6 km/h 0 % 0.0 mm
03:07 16.7 °C 16.0 °C 1012.1 hPa South 2.6 km/h 2.6 km/h 96 % 0.0 mm
03:12 16.8 °C 16.0 °C 1012.1 hPa Calm   4.3 km/h 96 % 0.0 mm
03:17 16.8 °C 16.0 °C 1013.1 hPa Calm   4.3 km/h 96 % 0.0 mm
03:22 16.8 °C 16.0 °C 1013.1 hPa SSW 1.8 km/h 5.8 km/h 95 % 0.0 mm
03:27 16.8 °C 16.0 °C 1013.1 hPa Calm   5.8 km/h 95 % 0.0 mm
03:32 16.9 °C 16.0 °C 1013.1 hPa Calm   3.2 km/h 95 % 0.0 mm
03:37 16.9 °C 16.0 °C 1013.1 hPa Calm   2.1 km/h 95 % 0.0 mm
03:42 16.9 °C 16.0 °C 1013.1 hPa Calm   4.7 km/h 95 % 0.0 mm
03:47 16.9 °C 16.0 °C 1012.1 hPa Calm   4.7 km/h 95 % 0.0 mm
03:52 16.9 °C 16.0 °C 1012.1 hPa Calm     95 % 0.0 mm
03:57 16.9 °C 16.0 °C 1012.1 hPa Calm     95 % 0.0 mm
04:02 16.9 °C 16.0 °C 1013.1 hPa Calm     95 % 0.0 mm
04:07 16.9 °C 16.0 °C 1013.1 hPa Calm     95 % 0.0 mm
04:12 16.9 °C 16.0 °C 1013.1 hPa Calm     95 % 0.0 mm
04:17 16.9 °C 16.0 °C 1013.1 hPa Calm     95 % 0.0 mm
04:22 16.9 °C 16.0 °C 1013.1 hPa Calm     95 % 0.0 mm
04:27 16.9 °C 16.0 °C 1013.1 hPa Calm     95 % 0.0 mm
04:32 16.9 °C 16.0 °C 1013.1 hPa Calm     95 % 0.0 mm
04:38 16.9 °C 16.0 °C 1013.1 hPa Calm     95 % 0.0 mm
04:43 16.9 °C 16.0 °C 1013.1 hPa Calm     95 % 0.0 mm
04:48 16.8 °C 16.0 °C 1013.1 hPa South 2.6 km/h 2.6 km/h 95 % 0.0 mm
04:53 16.8 °C 16.0 °C 1013.1 hPa Calm   2.6 km/h 95 % 0.0 mm
04:58 16.9 °C 16.0 °C 1013.1 hPa Calm   2.6 km/h 95 % 0.0 mm
05:03 16.9 °C 16.0 °C 1013.1 hPa SSW 1.8 km/h 1.8 km/h 95 % 0.0 mm
05:08 16.9 °C 16.0 °C 1013.1 hPa Calm   1.8 km/h 95 % 0.0 mm
05:14 16.9 °C 16.0 °C 1013.1 hPa Calm   4.0 km/h 95 % 0.0 mm
05:19 16.9 °C 16.0 °C 1013.1 hPa Calm   4.0 km/h 95 % 0.0 mm
05:21 16.9 °C 16.0 °C 1013.1 hPa Calm     95 % 0.0 mm
05:22 17.0 °C 16.0 °C 1013.1 hPa Calm     95 % 0.0 mm
05:25 17.0 °C 16.0 °C 1013.1 hPa Calm     95 % 0.0 mm
05:27 17.0 °C 16.0 °C 1013.1 hPa Calm     95 % 0.0 mm
05:31 17.0 °C 16.0 °C 1013.1 hPa Calm     95 % 0.0 mm
05:36 16.9 °C 16.0 °C 1013.1 hPa Calm   1.4 km/h 95 % 0.0 mm
05:41 16.8 °C 16.0 °C 1013.1 hPa Calm   2.1 km/h 95 % 0.0 mm
05:46 16.8 °C 16.0 °C 1012.1 hPa Calm   3.2 km/h 95 % 0.0 mm
05:51 16.8 °C 16.0 °C 1012.1 hPa Calm   3.2 km/h 95 % 0.0 mm
05:56 16.8 °C 16.0 °C 1012.1 hPa Calm     95 % 0.0 mm
06:01 16.7 °C 16.0 °C 1013.1 hPa Calm     95 % 0.0 mm
06:06 16.7 °C 16.0 °C 1013.1 hPa Calm     95 % 0.0 mm
06:11 16.7 °C 16.0 °C 1013.1 hPa Calm     95 % 0.0 mm
06:16 16.6 °C 16.0 °C 1012.1 hPa Calm     96 % 0.0 mm
06:21 16.6 °C 16.0 °C 1012.1 hPa Calm     96 % 0.0 mm
06:26 16.7 °C 16.0 °C 1012.1 hPa Calm     96 % 0.0 mm
06:31 16.7 °C 16.0 °C 1012.1 hPa Calm     96 % 0.0 mm
06:36 16.7 °C 16.0 °C 1012.1 hPa Calm     96 % 0.0 mm
06:41 16.7 °C 16.0 °C 1012.1 hPa Calm     96 % 0.0 mm
06:46 16.7 °C 16.0 °C 1013.1 hPa Calm     96 % 0.0 mm
06:52 16.7 °C 16.0 °C 1013.1 hPa Calm     96 % 0.0 mm
06:57 16.7 °C 16.0 °C 1013.1 hPa Calm     96 % 0.0 mm
07:02 16.8 °C 16.0 °C 1013.1 hPa Calm     96 % 0.0 mm
07:07 16.8 °C 16.0 °C 1013.1 hPa Calm     96 % 0.0 mm
07:12 16.9 °C 17.0 °C 1013.1 hPa Calm     96 % 0.0 mm
07:17 16.9 °C 17.0 °C 1012.1 hPa Calm     96 % 0.0 mm
07:22 17.0 °C 17.0 °C 1012.1 hPa Calm     96 % 0.0 mm
07:27 17.0 °C 17.0 °C 1012.1 hPa Calm     96 % 0.0 mm
07:32 17.0 °C 17.0 °C 1013.1 hPa Calm     96 % 0.0 mm
07:37 17.1 °C 17.0 °C 1013.1 hPa Calm     96 % 0.0 mm
07:42 17.1 °C 17.0 °C 1013.1 hPa Calm     96 % 0.0 mm
07:47 17.1 °C 17.0 °C 1012.1 hPa Calm     96 % 0.0 mm
07:52 17.1 °C 17.0 °C 1012.1 hPa Calm     96 % 0.3 mm
07:57 17.1 °C 17.0 °C 1012.1 hPa Calm     96 % 0.5 mm
08:02 17.1 °C 17.0 °C 1012.1 hPa Calm     96 % 0.5 mm
08:08 17.1 °C 17.0 °C 1012.1 hPa Calm     96 % 0.5 mm
08:13 17.1 °C 17.0 °C 1012.1 hPa Calm     96 % 0.5 mm
08:18 17.1 °C 17.0 °C 1012.1 hPa Calm     96 % 0.5 mm
08:20 17.1 °C 17.0 °C 1012.1 hPa Calm     96 % 0.5 mm
08:25 17.1 °C 17.0 °C 1012.1 hPa Calm     96 % 0.5 mm
08:30 17.1 °C 17.0 °C 1011.1 hPa Calm     96 % 0.5 mm
08:35 17.1 °C 17.0 °C 1011.1 hPa Calm     96 % 0.5 mm
08:40 17.1 °C 17.0 °C 1011.1 hPa Calm     96 % 0.5 mm
08:45 17.1 °C 17.0 °C 1011.1 hPa Calm     96 % 0.5 mm
08:50 17.3 °C 17.0 °C 1011.1 hPa Calm     97 % 0.3 mm
08:55 17.3 °C 17.0 °C 1011.1 hPa Calm     97 % 0.3 mm
09:00 17.3 °C 17.0 °C 1011.1 hPa Calm     97 % 1.3 mm
09:05 17.3 °C 17.0 °C 1011.1 hPa Calm     97 % 1.5 mm
09:10 17.3 °C 17.0 °C 1011.1 hPa Calm     97 % 1.5 mm
09:15 17.3 °C 17.0 °C 1011.1 hPa Calm     97 % 1.8 mm
09:20 17.3 °C 17.0 °C 1011.1 hPa Calm     97 % 1.8 mm
09:25 17.3 °C 17.0 °C 1011.1 hPa Calm     97 % 1.8 mm
09:30 17.3 °C 17.0 °C 1011.1 hPa Calm     97 % 1.8 mm
09:35 17.3 °C 17.0 °C 1011.1 hPa SSW 5.0 km/h 6.4 km/h 97 % 1.8 mm
09:40 17.3 °C 17.0 °C 1011.1 hPa SSW 6.1 km/h 9.7 km/h 97 % 1.8 mm
09:45 17.3 °C 17.0 °C 1011.1 hPa SSW 10.1 km/h 10.1 km/h 97 % 1.8 mm
09:50 17.3 °C 17.0 °C 1011.1 hPa WSW 13.7 km/h 13.7 km/h 97 % 1.8 mm
09:55 17.3 °C 17.0 °C 1011.1 hPa WSW 13.7 km/h 13.7 km/h 97 % 2.5 mm
10:00 17.3 °C 17.0 °C 1012.1 hPa WSW 13.7 km/h 13.7 km/h 97 % 2.3 mm
10:06 17.3 °C 17.0 °C 1012.1 hPa WSW 6.1 km/h 6.1 km/h 97 % 1.8 mm
10:11 17.3 °C 17.0 °C 1012.1 hPa WSW 6.1 km/h 6.1 km/h 97 % 1.5 mm
10:16 17.3 °C 17.0 °C 1012.1 hPa WSW 6.1 km/h 6.1 km/h 97 % 2.3 mm
10:21 17.3 °C 17.0 °C 1012.1 hPa WSW 6.1 km/h 6.1 km/h 97 % 2.5 mm
10:26 17.3 °C 17.0 °C 1012.1 hPa WSW 6.1 km/h 6.1 km/h 97 % 2.8 mm
10:31 17.3 °C 17.0 °C 1011.1 hPa WSW 6.1 km/h 6.1 km/h 97 % 2.8 mm
10:36 17.3 °C 17.0 °C 1011.1 hPa WSW 6.1 km/h 6.1 km/h 97 % 2.8 mm
10:41 17.3 °C 17.0 °C 1011.1 hPa West 10.8 km/h 11.9 km/h 97 % 2.8 mm
10:46 17.3 °C 17.0 °C 1012.1 hPa WSW 9.3 km/h 14.0 km/h 97 % 2.8 mm
10:51 17.3 °C 17.0 °C 1012.1 hPa WSW 12.6 km/h 14.0 km/h 97 % 2.8 mm
10:56 17.3 °C 17.0 °C 1012.1 hPa WSW 13.0 km/h 21.9 km/h 97 % 1.5 mm
11:01 17.3 °C 17.0 °C 1011.1 hPa WSW 7.9 km/h 21.9 km/h 97 % 1.3 mm
11:06 17.3 °C 17.0 °C 1011.1 hPa WSW 10.5 km/h 19.5 km/h 97 % 1.3 mm
11:11 17.3 °C 17.0 °C 1011.1 hPa WSW 9.7 km/h 13.0 km/h 97 % 1.3 mm
11:16 17.3 °C 17.0 °C 1011.1 hPa WSW 13.0 km/h 15.1 km/h 97 % 0.5 mm
11:17 17.3 °C 17.0 °C 1011.1 hPa WSW 20.6 km/h 20.6 km/h 97 % 0.3 mm
11:22 17.3 °C 17.0 °C 1011.1 hPa WSW 13.0 km/h 20.6 km/h 97 % 0.0 mm
11:27 17.3 °C 17.0 °C 1011.1 hPa WSW 17.2 km/h 20.6 km/h 97 % 0.0 mm
11:32 17.3 °C 17.0 °C 1011.1 hPa WSW 17.7 km/h 19.8 km/h 97 % 0.0 mm
11:37 17.3 °C 17.0 °C 1011.1 hPa WSW 8.7 km/h 19.8 km/h 97 % 0.0 mm
11:42 17.3 °C 17.0 °C 1011.1 hPa WSW 15.8 km/h 18.0 km/h 97 % 0.0 mm
11:47 17.3 °C 17.0 °C 1011.1 hPa West 13.0 km/h 16.6 km/h 97 % 0.0 mm
11:52 17.3 °C 17.0 °C 1011.1 hPa West 12.2 km/h 16.6 km/h 97 % 0.0 mm
11:57 17.3 °C 17.0 °C 1011.1 hPa WSW 20.6 km/h 20.6 km/h 97 % 0.0 mm
12:02 17.3 °C 17.0 °C 1011.1 hPa West 16.9 km/h 20.6 km/h 97 % 0.0 mm
12:07 17.3 °C 17.0 °C 1011.1 hPa WSW 11.9 km/h 21.2 km/h 97 % 0.0 mm
12:12 17.3 °C 17.0 °C 1011.1 hPa WSW 13.0 km/h 21.2 km/h 97 % 0.0 mm
12:17 17.3 °C 17.0 °C 1011.1 hPa WSW 16.6 km/h 20.6 km/h 97 % 0.0 mm
12:22 17.3 °C 17.0 °C 1011.1 hPa West 16.6 km/h 20.6 km/h 97 % 0.0 mm
12:27 17.3 °C 17.0 °C 1011.1 hPa West 13.0 km/h 19.5 km/h 97 % 0.0 mm
12:32 17.3 °C 17.0 °C 1011.1 hPa West 33.1 km/h 33.1 km/h 97 % 0.0 mm
12:37 17.3 °C 17.0 °C 1011.1 hPa West 16.9 km/h 33.1 km/h 97 % 0.0 mm
12:42 17.3 °C 17.0 °C 1011.1 hPa WSW 19.5 km/h 21.2 km/h 97 % 0.0 mm
12:47 17.3 °C 17.0 °C 1012.1 hPa WSW 21.9 km/h 21.9 km/h 97 % 0.0 mm
12:52 17.3 °C 17.0 °C 1012.1 hPa WSW 17.7 km/h 25.9 km/h 97 % 0.0 mm
12:57 17.3 °C 17.0 °C 1012.1 hPa WSW 9.7 km/h 27.7 km/h 97 % 0.0 mm
13:02 17.3 °C 17.0 °C 1011.1 hPa West 12.6 km/h 27.7 km/h 97 % 0.0 mm
13:07 17.3 °C 17.0 °C 1011.1 hPa WSW 18.3 km/h 21.6 km/h 97 % 0.0 mm
13:12 17.3 °C 17.0 °C 1011.1 hPa WNW 16.3 km/h 23.8 km/h 97 % 0.0 mm
13:17 17.3 °C 17.0 °C 1011.1 hPa West 16.9 km/h 23.8 km/h 97 % 0.0 mm
13:22 17.3 °C 17.0 °C 1011.1 hPa WSW 16.6 km/h 17.2 km/h 97 % 0.0 mm
13:27 17.3 °C 17.0 °C 1011.1 hPa SW 23.3 km/h 23.3 km/h 97 % 0.0 mm
13:32 17.3 °C 17.0 °C 1011.1 hPa WSW 16.6 km/h 23.3 km/h 97 % 0.0 mm
13:37 17.3 °C 17.0 °C 1011.1 hPa WSW 13.7 km/h 20.6 km/h 97 % 0.0 mm
13:42 17.3 °C 17.0 °C 1011.1 hPa WSW 15.8 km/h 20.1 km/h 97 % 0.0 mm
13:47 17.3 °C 17.0 °C 1011.1 hPa West 17.2 km/h 23.8 km/h 97 % 0.0 mm
13:52 20.4 °C 15.0 °C 1011.1 hPa WSW 19.5 km/h 23.8 km/h 71 % 0.0 mm
13:57 20.4 °C 15.0 °C 1011.1 hPa WSW 17.2 km/h 20.6 km/h 71 % 0.0 mm
14:02 20.4 °C 15.0 °C 1011.1 hPa SW 16.6 km/h 27.7 km/h 71 % 0.0 mm
14:07 20.4 °C 15.0 °C 1011.1 hPa West 12.6 km/h 27.7 km/h 71 % 0.0 mm
14:12 20.4 °C 15.0 °C 1011.1 hPa West 16.3 km/h 27.7 km/h 71 % 0.0 mm
14:17 20.4 °C 15.0 °C 1011.1 hPa WSW 19.1 km/h 27.7 km/h 71 % 0.0 mm
14:22 20.4 °C 15.0 °C 1011.1 hPa West 23.0 km/h 27.7 km/h 71 % 0.0 mm
14:28 20.4 °C 15.0 °C 1011.1 hPa West 20.1 km/h 23.8 km/h 71 % 0.0 mm
14:33 20.4 °C 15.0 °C 1011.1 hPa WSW 17.7 km/h 23.8 km/h 71 % 0.0 mm
14:38 20.4 °C 15.0 °C 1011.1 hPa WSW 17.7 km/h 20.6 km/h 71 % 0.0 mm
14:43 20.4 °C 15.0 °C 1011.1 hPa West 12.6 km/h 21.2 km/h 71 % 0.0 mm
14:48 20.4 °C 15.0 °C 1011.1 hPa SW 28.0 km/h 28.0 km/h 71 % 0.0 mm
14:53 20.4 °C 15.0 °C 1011.1 hPa WSW 17.7 km/h 28.0 km/h 71 % 0.0 mm
14:58 20.4 °C 15.0 °C 1011.1 hPa WSW 10.5 km/h 26.7 km/h 71 % 0.0 mm
15:03 20.4 °C 15.0 °C 1011.1 hPa West 6.9 km/h 20.6 km/h 71 % 0.0 mm
15:08 20.4 °C 15.0 °C 1011.1 hPa WSW 21.2 km/h 24.8 km/h 71 % 0.0 mm
15:13 20.4 °C 15.0 °C 1011.1 hPa WSW 25.3 km/h 28.5 km/h 71 % 0.0 mm
15:18 20.4 °C 15.0 °C 1011.1 hPa WNW 16.9 km/h 28.5 km/h 71 % 0.0 mm
15:23 21.7 °C 15.0 °C 1011.1 hPa West 27.7 km/h 27.7 km/h 65 % 0.0 mm
15:28 21.7 °C 15.0 °C 1011.1 hPa WSW 14.0 km/h 27.7 km/h 65 % 0.0 mm
15:33 21.7 °C 15.0 °C 1010.0 hPa WSW 16.3 km/h 27.7 km/h 65 % 0.0 mm
15:38 21.7 °C 15.0 °C 1010.0 hPa West 31.7 km/h 31.7 km/h 65 % 0.0 mm
15:43 21.7 °C 15.0 °C 1010.0 hPa SSW 11.6 km/h 31.7 km/h 65 % 0.0 mm
15:48 21.7 °C 15.0 °C 1011.1 hPa WSW 21.6 km/h 31.4 km/h 65 % 0.0 mm
15:53 21.7 °C 15.0 °C 1011.1 hPa WSW 27.7 km/h 27.7 km/h 65 % 0.0 mm
15:58 21.7 °C 15.0 °C 1011.1 hPa WNW 20.1 km/h 27.7 km/h 65 % 0.0 mm
16:03 21.7 °C 15.0 °C 1011.1 hPa WSW 29.1 km/h 29.1 km/h 65 % 0.0 mm
16:08 21.7 °C 15.0 °C 1011.1 hPa West 20.6 km/h 29.1 km/h 65 % 0.0 mm
16:13 21.7 °C 15.0 °C 1011.1 hPa West 16.3 km/h 32.0 km/h 65 % 0.0 mm
16:18 21.7 °C 15.0 °C 1011.1 hPa WSW 32.0 km/h 32.0 km/h 65 % 0.0 mm
16:23 21.7 °C 15.0 °C 1011.1 hPa West 24.5 km/h 32.0 km/h 65 % 0.0 mm
16:28 21.7 °C 15.0 °C 1011.1 hPa West 24.8 km/h 24.8 km/h 65 % 0.0 mm
16:34 21.7 °C 15.0 °C 1011.1 hPa WSW 18.0 km/h 24.8 km/h 65 % 0.0 mm
16:39 21.7 °C 15.0 °C 1011.1 hPa WSW 14.8 km/h 25.6 km/h 65 % 0.0 mm
16:44 21.8 °C 13.0 °C 1011.1 hPa WSW 12.2 km/h 25.6 km/h 58 % 0.0 mm
16:49 21.8 °C 12.0 °C 1012.1 hPa West 24.8 km/h 24.8 km/h 55 % 0.0 mm
16:54 21.8 °C 12.0 °C 1012.1 hPa WSW 20.6 km/h 27.7 km/h 55 % 0.0 mm
16:59 21.8 °C 12.0 °C 1012.1 hPa WSW 20.6 km/h 27.7 km/h 55 % 0.0 mm
17:04 21.8 °C 12.0 °C 1011.1 hPa SW 19.8 km/h 28.5 km/h 55 % 0.0 mm
17:09 21.8 °C 12.0 °C 1011.1 hPa WSW 19.8 km/h 28.5 km/h 55 % 0.0 mm
17:14 20.2 °C 13.0 °C 1011.1 hPa WSW 18.0 km/h 30.6 km/h 60 % 0.0 mm
17:19 20.1 °C 12.0 °C 1012.1 hPa WSW 13.0 km/h 30.6 km/h 61 % 0.0 mm
17:24 20.1 °C 12.0 °C 1012.1 hPa SW 20.9 km/h 28.8 km/h 61 % 0.0 mm
17:29 20.1 °C 12.0 °C 1012.1 hPa West 20.9 km/h 28.8 km/h 61 % 0.0 mm
17:34 20.1 °C 12.0 °C 1012.1 hPa WSW 17.2 km/h 26.7 km/h 61 % 0.0 mm
17:39 20.1 °C 12.0 °C 1012.1 hPa WSW 20.1 km/h 37.8 km/h 61 % 0.0 mm
17:44 19.8 °C 12.0 °C 1012.1 hPa WSW 20.1 km/h 37.8 km/h 60 % 0.0 mm
17:45 19.8 °C 12.0 °C 1013.1 hPa WSW 20.1 km/h 37.8 km/h 60 % 0.0 mm
17:50 19.6 °C 12.0 °C 1013.1 hPa WNW 24.5 km/h 35.2 km/h 62 % 0.0 mm
17:55 19.9 °C 13.0 °C 1013.1 hPa WSW 14.8 km/h 35.2 km/h 64 % 0.0 mm
18:00 19.9 °C 13.0 °C 1013.1 hPa WSW 19.8 km/h 31.4 km/h 64 % 0.0 mm
18:05 19.9 °C 13.0 °C 1013.1 hPa WSW 20.9 km/h 28.5 km/h 64 % 0.0 mm
18:10 19.6 °C 12.0 °C 1013.1 hPa WSW 24.8 km/h 30.6 km/h 62 % 0.0 mm
18:15 20.0 °C 13.0 °C 1013.1 hPa West 28.5 km/h 33.8 km/h 62 % 0.0 mm
18:20 19.8 °C 12.0 °C 1013.1 hPa West 20.9 km/h 33.8 km/h 62 % 0.0 mm
18:25 19.8 °C 12.0 °C 1013.1 hPa West 19.1 km/h 32.3 km/h 62 % 0.0 mm
18:30 19.8 °C 12.0 °C 1013.1 hPa SW 18.0 km/h 35.2 km/h 62 % 0.0 mm
18:35 19.8 °C 12.0 °C 1013.1 hPa WSW 28.5 km/h 35.2 km/h 62 % 0.0 mm
18:40 19.8 °C 12.0 °C 1013.1 hPa WSW 20.9 km/h 28.5 km/h 62 % 0.0 mm
18:45 20.1 °C 11.0 °C 1013.1 hPa West 32.0 km/h 32.0 km/h 56 % 0.0 mm
18:50 19.9 °C 11.0 °C 1013.1 hPa WSW 28.8 km/h 38.1 km/h 54 % 0.0 mm
18:55 19.9 °C 11.0 °C 1013.1 hPa WSW 20.6 km/h 38.1 km/h 55 % 0.0 mm
19:00 19.9 °C 11.0 °C 1013.1 hPa West 24.5 km/h 30.9 km/h 55 % 0.0 mm
19:06 19.9 °C 11.0 °C 1013.1 hPa West 27.7 km/h 29.9 km/h 55 % 0.0 mm
19:11 19.6 °C 10.0 °C 1013.1 hPa West 22.4 km/h 37.8 km/h 54 % 0.0 mm
19:16 19.7 °C 11.0 °C 1012.1 hPa WSW 24.8 km/h 37.8 km/h 56 % 0.0 mm
19:21 19.7 °C 11.0 °C 1012.1 hPa West 12.6 km/h 32.3 km/h 56 % 0.0 mm
19:26 19.7 °C 11.0 °C 1012.1 hPa West 19.5 km/h 25.9 km/h 56 % 0.0 mm
19:31 19.7 °C 11.0 °C 1013.1 hPa West 20.1 km/h 25.9 km/h 56 % 0.0 mm
19:36 19.6 °C 11.0 °C 1013.1 hPa West 16.3 km/h 21.6 km/h 57 % 0.0 mm
19:41 19.6 °C 11.0 °C 1013.1 hPa West 31.4 km/h 31.4 km/h 57 % 0.0 mm
19:46 0.0 °C 11.0 °C 1013.1 hPa WSW 22.4 km/h 31.2 km/h 0 % 0.0 mm
19:52 19.0 °C 11.0 °C 1013.1 hPa SW 20.1 km/h 27.7 km/h 58 % 0.0 mm
19:57 18.6 °C 11.0 °C 1013.1 hPa WSW 21.2 km/h 21.9 km/h 61 % 0.0 mm
20:02 18.2 °C 11.0 °C 1013.1 hPa West 19.1 km/h 27.7 km/h 61 % 0.0 mm
20:07 18.1 °C 11.0 °C 1013.1 hPa West 21.2 km/h 27.7 km/h 62 % 0.0 mm
20:12 17.9 °C 11.0 °C 1013.1 hPa West 19.1 km/h 27.7 km/h 63 % 0.0 mm
20:17 17.7 °C 11.0 °C 1013.1 hPa WSW 10.5 km/h 23.3 km/h 64 % 0.0 mm
20:22 17.6 °C 11.0 °C 1013.1 hPa WSW 18.3 km/h 28.5 km/h 64 % 0.0 mm
20:27 17.6 °C 11.0 °C 1013.1 hPa WSW 20.1 km/h 31.4 km/h 64 % 0.0 mm
20:32 17.6 °C 11.0 °C 1013.1 hPa West 16.9 km/h 31.4 km/h 64 % 0.0 mm
20:37 17.6 °C 11.0 °C 1013.1 hPa West 16.3 km/h 20.1 km/h 64 % 0.0 mm
20:42 17.6 °C 11.0 °C 1013.1 hPa WSW 15.4 km/h 20.9 km/h 64 % 0.0 mm
20:47 17.6 °C 11.0 °C 1014.1 hPa WSW 16.6 km/h 24.8 km/h 64 % 0.0 mm
20:52 17.6 °C 11.0 °C 1014.1 hPa WSW 13.7 km/h 24.8 km/h 64 % 0.0 mm
20:57 16.6 °C 12.0 °C 1014.1 hPa West 10.1 km/h 21.2 km/h 72 % 0.0 mm
21:02 16.5 °C 12.0 °C 1014.1 hPa West 10.1 km/h 21.9 km/h 73 % 0.0 mm
21:07 16.3 °C 12.0 °C 1014.1 hPa WSW 9.7 km/h 21.9 km/h 74 % 0.0 mm
21:12 16.2 °C 12.0 °C 1014.1 hPa WSW 12.6 km/h 16.9 km/h 74 % 0.0 mm
21:17 16.0 °C 12.0 °C 1014.1 hPa West 12.2 km/h 14.0 km/h 75 % 0.0 mm
21:22 15.9 °C 12.0 °C 1014.1 hPa WSW 12.2 km/h 14.0 km/h 77 % 0.0 mm
21:27 15.9 °C 12.0 °C 1014.1 hPa West 6.9 km/h 16.3 km/h 75 % 0.0 mm
21:32 15.8 °C 12.0 °C 1014.1 hPa WSW 19.8 km/h 19.8 km/h 75 % 0.0 mm
21:37 15.7 °C 12.0 °C 1014.1 hPa WSW 9.0 km/h 19.8 km/h 75 % 0.0 mm
21:42 15.7 °C 12.0 °C 1014.1 hPa WSW 12.2 km/h 17.7 km/h 75 % 0.0 mm
21:47 15.6 °C 12.0 °C 1014.1 hPa WSW 17.2 km/h 20.1 km/h 75 % 0.0 mm
21:52 15.4 °C 11.0 °C 1014.1 hPa WSW 9.7 km/h 20.1 km/h 76 % 0.0 mm
21:58 15.2 °C 12.0 °C 1014.1 hPa West 7.9 km/h 17.2 km/h 77 % 0.0 mm
22:03 15.0 °C 11.0 °C 1014.1 hPa WSW 9.0 km/h 10.5 km/h 77 % 0.0 mm
22:08 14.8 °C 11.0 °C 1014.1 hPa WSW 5.0 km/h 9.0 km/h 79 % 0.0 mm
22:13 14.5 °C 11.0 °C 1014.1 hPa WSW 7.9 km/h 11.6 km/h 79 % 0.0 mm
22:18 14.5 °C 12.0 °C 1014.1 hPa West 10.5 km/h 11.6 km/h 81 % 0.0 mm
22:23 14.5 °C 12.0 °C 1014.1 hPa WSW 7.9 km/h 11.6 km/h 81 % 0.0 mm
22:28 14.4 °C 12.0 °C 1014.1 hPa SW 6.1 km/h 11.1 km/h 82 % 0.0 mm
22:33 14.3 °C 12.0 °C 1014.1 hPa WSW 8.7 km/h 12.2 km/h 83 % 0.0 mm
22:38 14.2 °C 12.0 °C 1014.1 hPa WSW 9.0 km/h 12.2 km/h 83 % 0.0 mm
22:43 14.1 °C 11.0 °C 1014.1 hPa WSW 6.1 km/h 10.5 km/h 83 % 0.0 mm
22:48 14.0 °C 11.0 °C 1014.1 hPa SSW 1.4 km/h 10.5 km/h 83 % 0.0 mm
22:53 14.0 °C 12.0 °C 1014.1 hPa WSW 8.7 km/h 9.7 km/h 84 % 0.0 mm
22:58 13.9 °C 12.0 °C 1014.1 hPa WSW 6.4 km/h 9.7 km/h 85 % 0.0 mm
23:03 13.8 °C 12.0 °C 1014.1 hPa SW 3.5 km/h 9.7 km/h 85 % 0.0 mm
23:08 13.8 °C 12.0 °C 1014.1 hPa Calm   10.1 km/h 85 % 0.0 mm
23:18 13.6 °C 12.0 °C 1014.1 hPa Calm   10.5 km/h 86 % 0.0 mm
23:23 13.5 °C 12.0 °C 1014.1 hPa WSW 4.0 km/h 9.0 km/h 87 % 0.0 mm
23:28 13.5 °C 12.0 °C 1014.1 hPa WSW 1.8 km/h 10.5 km/h 87 % 0.0 mm
23:34 13.5 °C 12.0 °C 1014.1 hPa WSW 1.8 km/h 10.5 km/h 87 % 0.0 mm
23:39 13.4 °C 12.0 °C 1014.1 hPa WSW 5.0 km/h 9.7 km/h 87 % 0.0 mm
23:44 13.3 °C 12.0 °C 1014.1 hPa Calm   5.0 km/h 87 % 0.0 mm
23:49 13.3 °C 12.0 °C 1014.1 hPa Calm   5.0 km/h 87 % 0.0 mm
23:54 13.3 °C 12.0 °C 1014.1 hPa Calm     87 % 0.0 mm
23:59 13.3 °C 12.0 °C 1014.1 hPa Calm   4.0 km/h 87 % 0.0 mm
Le Gheer Warneton
Courtoisie de Weather Underground - 2.5 mb

Mise a jour : 17-12-17 07:11:12
Généré par Cumulus 1.9.4 (1099)